SR3WXA Weather Reports


time (UTC)temp
F
wind
direction
speed
knots
gust
knots
rain 1hr
in
rain 24hr
in
rain mn
in
humidity
%
barometer
mb
20260901143035 67 0 0.0 0.0 0.00 0.00 0.00 75 1016.7
20260901142534 67 0 0.0 0.0 0.00 0.00 0.00 75 1016.8
20260901142121 67 0 0.0 0.0 0.00 0.00 0.00 74 1016.7
20260901142033 67 0 0.0 0.0 0.00 0.00 0.00 74 1016.7
20260901141709 67 0 0.0 0.0 0.00 0.00 0.00 74 1016.8
20260901141533 67 0 0.0 0.0 0.00 0.00 0.00 74 1016.8
20260901140643 67 0 0.0 0.0 0.00 0.00 0.00 75 1016.8
20260901140533 67 0 0.0 0.0 0.00 0.00 0.00 75 1016.8
20260901140140 67 0 0.0 0.0 0.00 0.00 0.00 75 1016.8
20260901140034 67 0 0.0 0.0 0.00 0.00 0.00 75 1016.8
20260901135140 67 0 0.0 0.0 0.00 0.00 0.00 75 1016.9
20260901135106 67 0 0.0 0.0 0.00 0.00 0.00 75 1016.9
20260901134659 67 0 0.0 0.0 0.00 0.00 0.00 76 1016.9
20260901134606 67 0 0.0 0.0 0.00 0.00 0.00 76 1016.9
20260901134151 67 0 0.0 0.0 0.00 0.00 0.00 75 1017.0
20260901134106 67 0 0.0 0.0 0.00 0.00 0.00 75 1017.0
20260901133648 67 0 0.0 0.0 0.00 0.00 0.00 74 1016.9
20260901133606 67 0 0.0 0.0 0.00 0.00 0.00 74 1016.9
20260901131144 67 0 0.0 0.0 0.00 0.00 0.00 77 1017.1
20260901131106 67 0 0.0 0.0 0.00 0.00 0.00 77 1017.1
20260901130606 67 0 0.0 0.0 0.00 0.00 0.00 75 1017.0
20260901130108 67 0 0.0 0.0 0.00 0.00 0.00 75 1017.0
20260901125702 68 0 0.0 0.0 0.00 0.00 0.00 73 1016.9
20260901125606 68 0 0.0 0.0 0.00 0.00 0.00 73 1016.9
20260901125147 68 0 0.0 0.0 0.00 0.00 0.00 72 1016.8
20260901125106 68 0 0.0 0.0 0.00 0.00 0.00 72 1016.8
20260901124642 68 0 0.0 0.0 0.00 0.00 0.00 73 1016.7
20260901124606 68 0 0.0 0.0 0.00 0.00 0.00 73 1016.7
20260901124207 68 0 0.0 0.0 0.00 0.00 0.00 74 1016.7
20260901124106 68 0 0.0 0.0 0.00 0.00 0.00 74 1016.7
20260901123606 68 0 0.0 0.0 0.00 0.00 0.00 74 1016.7
20260901123106 68 0 0.0 0.0 0.00 0.00 0.00 74 1016.7
20260901122714 67 0 0.0 0.0 0.00 0.00 0.00 76 1016.7
20260901122606 67 0 0.0 0.0 0.00 0.00 0.00 76 1016.7
20260901122156 67 0 0.0 0.0 0.00 0.00 0.00 76 1016.8
20260901122106 67 0 0.0 0.0 0.00 0.00 0.00 76 1016.8
20260901121714 66 0 0.0 0.0 0.00 0.00 0.00 76 1016.8
20260901121606 66 0 0.0 0.0 0.00 0.00 0.00 76 1016.8
20260901121023 67 0 0.0 0.0 0.00 0.00 0.00 76 1016.8
20260901120736 67 0 0.0 0.0 0.00 0.00 0.00 77 1016.8
20260901120522 67 0 0.0 0.0 0.00 0.00 0.00 77 1016.8
20260901120129 67 0 0.0 0.0 0.00 0.00 0.00 79 1016.8
20260901120023 67 0 0.0 0.0 0.00 0.00 0.00 79 1016.8
20260901115522 66 0 0.0 0.0 0.00 0.00 0.00 81 1016.8
20260901115144 66 0 0.0 0.0 0.00 0.00 0.00 81 1016.8
20260901115022 66 0 0.0 0.0 0.00 0.00 0.00 81 1016.8
20260901114626 65 0 0.0 0.0 0.00 0.00 0.00 82 1016.8
20260901114522 65 0 0.0 0.0 0.00 0.00 0.00 82 1016.8
20260901114132 65 0 0.0 0.0 0.00 0.00 0.00 85 1016.8
20260901114023 65 0 0.0 0.0 0.00 0.00 0.00 85 1016.8
20260901113522 64 0 0.0 0.0 0.00 0.00 0.00 86 1016.8
20260901112711 63 0 0.0 0.0 0.00 0.00 0.00 88 1016.8
20260901112613 63 0 0.0 0.0 0.00 0.00 0.00 88 1016.8
20260901112113 63 0 0.0 0.0 0.00 0.00 0.00 88 1016.9
20260901111654 63 0 0.0 0.0 0.00 0.00 0.00 86 1016.9
20260901111613 63 0 0.0 0.0 0.00 0.00 0.00 86 1016.9
20260901110653 64 0 0.0 0.0 0.00 0.00 0.00 86 1016.8
20260901110612 64 0 0.0 0.0 0.00 0.00 0.00 86 1016.8
20260901110113 64 0 0.0 0.0 0.00 0.00 0.00 87 1016.7
20260901105717 64 0 0.0 0.0 0.00 0.00 0.00 88 1016.7
20260901105612 64 0 0.0 0.0 0.00 0.00 0.00 88 1016.7
20260901105224 63 0 0.0 0.0 0.00 0.00 0.00 91 1016.7
20260901105112 63 0 0.0 0.0 0.00 0.00 0.00 91 1016.7
20260901104703 62 0 0.0 0.0 0.00 0.00 0.00 92 1016.7
20260901104612 62 0 0.0 0.0 0.00 0.00 0.00 92 1016.7
20260901103448 62 0 0.0 0.0 0.00 0.00 0.00 94 1016.7
20260901103411 62 0 0.0 0.0 0.00 0.00 0.00 94 1016.7
20260901102949 61 0 0.0 0.0 0.00 0.00 0.00 94 1016.6
20260901102912 61 0 0.0 0.0 0.00 0.00 0.00 94 1016.6
20260901102513 61 0 0.0 0.0 0.00 0.00 0.00 94 1016.5
20260901102411 61 0 0.0 0.0 0.00 0.00 0.00 94 1016.5
20260901102000 61 0 0.0 0.0 0.00 0.00 0.00 94 1016.5
20260901101911 61 0 0.0 0.0 0.00 0.00 0.00 94 1016.5
20260901101501 61 0 0.0 0.0 0.00 0.00 0.00 94 1016.5
20260901101411 61 0 0.0 0.0 0.00 0.00 0.00 94 1016.5
20260901101009 61 0 0.0 0.0 0.00 0.00 0.00 93 1016.5
20260901100911 61 0 0.0 0.0 0.00 0.00 0.00 93 1016.5
20260901100511 61 0 0.0 0.0 0.00 0.00 0.00 93 1016.4
20260901100411 61 0 0.0 0.0 0.00 0.00 0.00 93 1016.4
20260901095911 61 0 0.0 0.0 0.00 0.00 0.00 92 1016.4
20260901095332 61 0 0.0 0.0 0.00 0.00 0.00 91 1016.4
20260901095242 61 0 0.0 0.0 0.00 0.00 0.00 91 1016.4
20260901094920 62 0 0.0 0.0 0.00 0.00 0.00 90 1016.4
20260901094741 62 0 0.0 0.0 0.00 0.00 0.00 90 1016.4
20260901094241 62 0 0.0 0.0 0.00 0.00 0.00 87 1016.3
20260901093847 63 0 0.0 0.0 0.00 0.00 0.00 86 1016.2
20260901093741 63 0 0.0 0.0 0.00 0.00 0.00 86 1016.2
20260901093329 63 0 0.0 0.0 0.00 0.00 0.00 86 1016.1
20260901093241 63 0 0.0 0.0 0.00 0.00 0.00 86 1016.1
20260901092907 63 0 0.0 0.0 0.00 0.00 0.00 86 1016.1
20260901092741 63 0 0.0 0.0 0.00 0.00 0.00 86 1016.1
20260901092415 62 0 0.0 0.0 0.00 0.00 0.00 86 1016.0
20260901092241 62 0 0.0 0.0 0.00 0.00 0.00 86 1016.0
20260901091742 63 0 0.0 0.0 0.00 0.00 0.00 86 1016.0
20260901091326 62 0 0.0 0.0 0.00 0.00 0.00 86 1016.0
20260901091241 62 0 0.0 0.0 0.00 0.00 0.00 86 1016.0
20260901090905 62 0 0.0 0.0 0.00 0.00 0.00 86 1016.0
20260901090741 62 0 0.0 0.0 0.00 0.00 0.00 86 1016.0
20260901090508 63 0 0.0 0.0 0.00 0.00 0.00 85 1016.0
20260901090241 63 0 0.0 0.0 0.00 0.00 0.00 85 1016.0
20260901085858 63 0 0.0 0.0 0.00 0.00 0.00 83 1015.9
20260901085741 63 0 0.0 0.0 0.00 0.00 0.00 83 1015.9
20260901085422 63 0 0.0 0.0 0.00 0.00 0.00 83 1015.9
20260901085241 63 0 0.0 0.0 0.00 0.00 0.00 83 1015.9
20260901084741 63 0 0.0 0.0 0.00 0.00 0.00 83 1015.9
20260901084343 63 0 0.0 0.0 0.00 0.00 0.00 83 1015.9
20260901084241 63 0 0.0 0.0 0.00 0.00 0.00 83 1015.9
20260901083849 63 0 0.0 0.0 0.00 0.00 0.00 83 1015.9
20260901083741 63 0 0.0 0.0 0.00 0.00 0.00 83 1015.9
20260901083331 63 0 0.0 0.0 0.00 0.00 0.00 83 1015.8
20260901083242 63 0 0.0 0.0 0.00 0.00 0.00 83 1015.8
20260901082825 63 0 0.0 0.0 0.00 0.00 0.00 86 1015.8
20260901082741 63 0 0.0 0.0 0.00 0.00 0.00 86 1015.8
20260901082358 62 0 0.0 0.0 0.00 0.00 0.00 87 1015.8
20260901082241 62 0 0.0 0.0 0.00 0.00 0.00 87 1015.8
20260901081831 61 0 0.0 0.0 0.00 0.00 0.00 87 1015.8
20260901081741 61 0 0.0 0.0 0.00 0.00 0.00 87 1015.8
20260901081241 61 0 0.0 0.0 0.00 0.00 0.00 87 1015.7
20260901080741 61 0 0.0 0.0 0.00 0.00 0.00 88 1015.6
20260901080334 61 0 0.0 0.0 0.00 0.00 0.00 90 1015.5
20260901080241 61 0 0.0 0.0 0.00 0.00 0.00 90 1015.5
20260901075458 60 0 0.0 0.0 0.00 0.00 0.00 92 1015.4
20260901075336 60 0 0.0 0.0 0.00 0.00 0.00 92 1015.4
20260901074959 60 0 0.0 0.0 0.00 0.00 0.00 93 1015.4
20260901074836 60 0 0.0 0.0 0.00 0.00 0.00 93 1015.4
20260901074421 60 0 0.0 0.0 0.00 0.00 0.00 93 1015.3
20260901074336 60 0 0.0 0.0 0.00 0.00 0.00 93 1015.3
20260901073937 59 0 0.0 0.0 0.00 0.00 0.00 94 1015.3
20260901073836 59 0 0.0 0.0 0.00 0.00 0.00 94 1015.3
20260901073441 59 0 0.0 0.0 0.00 0.00 0.00 94 1015.3
20260901073336 59 0 0.0 0.0 0.00 0.00 0.00 94 1015.3
20260901072836 59 0 0.0 0.0 0.00 0.00 0.00 94 1015.2
20260901072337 59 0 0.0 0.0 0.00 0.00 0.00 94 1015.1
20260901071925 59 0 0.0 0.0 0.00 0.00 0.00 94 1015.1
20260901071836 59 0 0.0 0.0 0.00 0.00 0.00 94 1015.1
20260901070955 59 0 0.0 0.0 0.00 0.00 0.00 93 1015.0
20260901070550 59 0 0.0 0.0 0.00 0.00 0.00 93 1014.9
20260901070455 59 0 0.0 0.0 0.00 0.00 0.00 93 1014.9
20260901065955 59 0 0.0 0.0 0.00 0.00 0.00 92 1014.8
20260901065456 59 0 0.0 0.0 0.00 0.00 0.00 92 1014.8
20260901064956 59 0 0.0 0.0 0.00 0.00 0.00 91 1014.8
20260901064534 59 0 0.0 0.0 0.00 0.00 0.00 90 1014.7
20260901064455 59 0 0.0 0.0 0.00 0.00 0.00 90 1014.7
20260901064039 59 0 0.0 0.0 0.00 0.00 0.00 89 1014.7
20260901063955 59 0 0.0 0.0 0.00 0.00 0.00 89 1014.7
20260901063722 59 0 0.0 0.0 0.00 0.00 0.00 89 1014.6
20260901063455 59 0 0.0 0.0 0.00 0.00 0.00 89 1014.6
20260901063042 59 0 0.0 0.0 0.00 0.00 0.00 90 1014.6
20260901062955 59 0 0.0 0.0 0.00 0.00 0.00 90 1014.6
20260901062127 59 0 0.0 0.0 0.00 0.00 0.00 90 1014.5
20260901062008 59 0 0.0 0.0 0.00 0.00 0.00 90 1014.5
20260901061606 59 0 0.0 0.0 0.00 0.00 0.00 90 1014.5
20260901061508 59 0 0.0 0.0 0.00 0.00 0.00 90 1014.5
20260901061040 59 0 0.0 0.0 0.00 0.00 0.00 90 1014.5
20260901061008 59 0 0.0 0.0 0.00 0.00 0.00 90 1014.5
20260901060637 59 0 0.0 0.0 0.00 0.00 0.00 90 1014.5
20260901060508 59 0 0.0 0.0 0.00 0.00 0.00 90 1014.5
20260901060009 59 0 0.0 0.0 0.00 0.00 0.00 90 1014.4
20260901055616 59 0 0.0 0.0 0.00 0.00 0.00 89 1014.4
20260901055508 59 0 0.0 0.0 0.00 0.00 0.00 89 1014.4
20260901055009 59 0 0.0 0.0 0.00 0.00 0.00 90 1014.4
20260901054102 59 0 0.0 0.0 0.00 0.00 0.00 90 1014.3
20260901054008 59 0 0.0 0.0 0.00 0.00 0.00 90 1014.3
20260901053626 59 0 0.0 0.0 0.00 0.00 0.00 90 1014.3
20260901053509 59 0 0.0 0.0 0.00 0.00 0.00 90 1014.3
20260901053137 59 0 0.0 0.0 0.00 0.00 0.00 90 1014.3
20260901053050 59 0 0.0 0.0 0.00 0.00 0.00 90 1014.3
20260901053009 59 0 0.0 0.0 0.00 0.00 0.00 90 1014.3
20260901052556 59 0 0.0 0.0 0.00 0.00 0.00 90 1014.3
20260901052509 59 0 0.0 0.0 0.00 0.00 0.00 90 1014.3
20260901052117 59 0 0.0 0.0 0.00 0.00 0.00 90 1014.2
20260901052008 59 0 0.0 0.0 0.00 0.00 0.00 90 1014.2
20260901051622 59 0 0.0 0.0 0.00 0.00 0.00 90 1014.2
20260901051508 59 0 0.0 0.0 0.00 0.00 0.00 90 1014.2
20260901051105 59 0 0.0 0.0 0.00 0.00 0.00 90 1014.2
20260901051008 59 0 0.0 0.0 0.00 0.00 0.00 90 1014.2
20260901050638 58 0 0.0 0.0 0.00 0.00 0.00 90 1014.1
20260901050508 58 0 0.0 0.0 0.00 0.00 0.00 90 1014.1
20260901050138 58 0 0.0 0.0 0.00 0.00 0.00 90 1014.1
20260901050008 58 0 0.0 0.0 0.00 0.00 0.00 90 1014.1
20260901045643 58 0 0.0 0.0 0.00 0.00 0.00 91 1014.1
20260901045508 58 0 0.0 0.0 0.00 0.00 0.00 91 1014.1
20260901045008 58 0 0.0 0.0 0.00 0.00 0.00 91 1014.1
20260901044631 58 0 0.0 0.0 0.00 0.00 0.00 91 1014.1
20260901044508 58 0 0.0 0.0 0.00 0.00 0.00 91 1014.1
20260901044117 58 0 0.0 0.0 0.00 0.00 0.00 91 1014.1
20260901044008 58 0 0.0 0.0 0.00 0.00 0.00 91 1014.1
20260901043716 58 0 0.0 0.0 0.00 0.00 0.00 91 1014.1
20260901043508 58 0 0.0 0.0 0.00 0.00 0.00 91 1014.1
20260901043122 58 0 0.0 0.0 0.00 0.00 0.00 91 1013.9
20260901043008 58 0 0.0 0.0 0.00 0.00 0.00 91 1013.9
20260901042557 58 0 0.0 0.0 0.00 0.00 0.00 91 1013.9
20260901042508 58 0 0.0 0.0 0.00 0.00 0.00 91 1013.9
20260901042100 58 0 0.0 0.0 0.00 0.00 0.00 90 1013.9
20260901042008 58 0 0.0 0.0 0.00 0.00 0.00 90 1013.9
20260901041616 58 0 0.0 0.0 0.00 0.00 0.00 90 1013.9
20260901041508 58 0 0.0 0.0 0.00 0.00 0.00 90 1013.9
20260901041050 58 0 0.0 0.0 0.00 0.00 0.00 90 1013.8
20260901041008 58 0 0.0 0.0 0.00 0.00 0.00 90 1013.8
20260901040546 58 0 0.0 0.0 0.00 0.00 0.00 90 1013.8
20260901040508 58 0 0.0 0.0 0.00 0.00 0.00 90 1013.8
20260901040107 58 0 0.0 0.0 0.00 0.00 0.00 90 1013.7
20260901040008 58 0 0.0 0.0 0.00 0.00 0.00 90 1013.7
20260901035603 58 0 0.0 0.0 0.00 0.00 0.00 90 1013.7
20260901035508 58 0 0.0 0.0 0.00 0.00 0.00 90 1013.7
20260901035055 58 0 0.0 0.0 0.00 0.00 0.00 89 1013.7
20260901035008 58 0 0.0 0.0 0.00 0.00 0.00 89 1013.7
20260901034608 58 0 0.0 0.0 0.00 0.00 0.00 89 1013.7
20260901034508 58 0 0.0 0.0 0.00 0.00 0.00 89 1013.7
20260901034048 58 0 0.0 0.0 0.00 0.00 0.00 89 1013.6
20260901034008 58 0 0.0 0.0 0.00 0.00 0.00 89 1013.6
20260901033019 58 0 0.0 0.0 0.00 0.00 0.00 89 1013.5
20260901032900 58 0 0.0 0.0 0.00 0.00 0.00 89 1013.5
20260901032549 58 0 0.0 0.0 0.00 0.00 0.00 88 1013.6
20260901032401 58 0 0.0 0.0 0.00 0.00 0.00 88 1013.6
20260901032053 59 0 0.0 0.0 0.00 0.00 0.00 88 1013.5
20260901031900 59 0 0.0 0.0 0.00 0.00 0.00 88 1013.5
20260901031521 59 0 0.0 0.0 0.00 0.00 0.00 88 1013.4
20260901031443 59 0 0.0 0.0 0.00 0.00 0.00 88 1013.4
20260901031400 59 0 0.0 0.0 0.00 0.00 0.00 88 1013.4
20260901030956 59 0 0.0 0.0 0.00 0.00 0.00 87 1013.3
20260901030901 59 0 0.0 0.0 0.00 0.00 0.00 87 1013.3
20260901030605 59 0 0.0 0.0 0.00 0.00 0.00 87 1013.3
20260901030400 59 0 0.0 0.0 0.00 0.00 0.00 87 1013.3
20260901025727 59 0 0.0 0.0 0.00 0.00 0.00 86 1013.3
20260901025515 59 0 0.0 0.0 0.00 0.00 0.00 86 1013.3
20260901025214 59 0 0.0 0.0 0.00 0.00 0.00 86 1013.3
20260901025015 59 0 0.0 0.0 0.00 0.00 0.00 86 1013.3
20260901024634 59 0 0.0 0.0 0.00 0.00 0.00 86 1013.3
20260901024601 59 0 0.0 0.0 0.00 0.00 0.00 86 1013.3
20260901024515 59 0 0.0 0.0 0.00 0.00 0.00 86 1013.3
20260901024118 59 0 0.0 0.0 0.00 0.00 0.00 86 1013.3
20260901024015 59 0 0.0 0.0 0.00 0.00 0.00 86 1013.3
20260901023836 59 0 0.0 0.0 0.00 0.00 0.00 85 1013.4
20260901023515 59 0 0.0 0.0 0.00 0.00 0.00 85 1013.4
20260901023015 59 0 0.0 0.0 0.00 0.00 0.00 85 1013.3
20260901022650 59 0 0.0 0.0 0.00 0.00 0.00 85 1013.3
20260901022515 59 0 0.0 0.0 0.00 0.00 0.00 85 1013.3
20260901022151 59 0 0.0 0.0 0.00 0.00 0.00 85 1013.3
20260901022015 59 0 0.0 0.0 0.00 0.00 0.00 85 1013.3
20260901021505 60 0 0.0 0.0 0.00 0.00 0.00 84 1013.3
20260901021415 60 0 0.0 0.0 0.00 0.00 0.00 84 1013.3
20260901021009 60 0 0.0 0.0 0.00 0.00 0.00 84 1013.3
20260901020915 60 0 0.0 0.0 0.00 0.00 0.00 84 1013.3
20260901020527 60 0 0.0 0.0 0.00 0.00 0.00 84 1013.2
20260901020415 60 0 0.0 0.0 0.00 0.00 0.00 84 1013.2
20260901020005 60 0 0.0 0.0 0.00 0.00 0.00 84 1013.3
20260901015915 60 0 0.0 0.0 0.00 0.00 0.00 84 1013.3
20260901015539 60 0 0.0 0.0 0.00 0.00 0.00 84 1013.3
20260901015506 60 0 0.0 0.0 0.00 0.00 0.00 84 1013.3
20260901015415 60 0 0.0 0.0 0.00 0.00 0.00 84 1013.3
20260901015020 60 0 0.0 0.0 0.00 0.00 0.00 84 1013.4
20260901014915 60 0 0.0 0.0 0.00 0.00 0.00 84 1013.4
20260901014449 60 0 0.0 0.0 0.00 0.00 0.00 83 1013.3
20260901014415 60 0 0.0 0.0 0.00 0.00 0.00 83 1013.3
20260901013956 60 0 0.0 0.0 0.00 0.00 0.00 83 1013.2
20260901013915 60 0 0.0 0.0 0.00 0.00 0.00 83 1013.2
20260901012841 61 0 0.0 0.0 0.00 0.00 0.00 82 1013.3
20260901012417 61 0 0.0 0.0 0.00 0.00 0.00 82 1013.4
20260901012341 61 0 0.0 0.0 0.00 0.00 0.00 82 1013.4
20260901012005 61 0 0.0 0.0 0.00 0.00 0.00 82 1013.4
20260901011841 61 0 0.0 0.0 0.00 0.00 0.00 82 1013.4
20260901011415 61 0 0.0 0.0 0.00 0.00 0.00 81 1013.3
20260901011341 61 0 0.0 0.0 0.00 0.00 0.00 81 1013.3
20260901010945 61 0 0.0 0.0 0.00 0.00 0.00 81 1013.4
20260901010841 61 0 0.0 0.0 0.00 0.00 0.00 81 1013.4
20260901010457 61 0 0.0 0.0 0.00 0.00 0.00 81 1013.4
20260901010341 61 0 0.0 0.0 0.00 0.00 0.00 81 1013.4
20260901010015 61 0 0.0 0.0 0.00 0.00 0.00 81 1013.4
20260901005841 61 0 0.0 0.0 0.00 0.00 0.00 81 1013.4
20260901005429 62 0 0.0 0.0 0.00 0.00 0.00 81 1013.4
20260901005341 62 0 0.0 0.0 0.00 0.00 0.00 81 1013.4
20260901005040 62 0 0.0 0.0 0.00 0.00 0.00 80 1013.4
20260901004841 62 0 0.0 0.0 0.00 0.00 0.00 80 1013.4
20260901003940 62 0 0.0 0.0 0.00 0.00 0.00 79 1013.3
20260901003850 62 0 0.0 0.0 0.00 0.00 0.00 79 1013.3
20260901003421 62 0 0.0 0.0 0.00 0.00 0.00 79 1013.3
20260901003350 62 0 0.0 0.0 0.00 0.00 0.00 79 1013.3
20260901002850 62 0 0.0 0.0 0.00 0.00 0.00 79 1013.4
20260901002451 63 0 0.0 0.0 0.00 0.00 0.00 78 1013.3
20260901002350 63 0 0.0 0.0 0.00 0.00 0.00 78 1013.3
20260901002123 63 0 0.0 0.0 0.00 0.00 0.00 78 1013.3
20260901001850 63 0 0.0 0.0 0.00 0.00 0.00 78 1013.3
20260901001449 63 0 0.0 0.0 0.00 0.00 0.00 78 1013.3
20260901001350 63 0 0.0 0.0 0.00 0.00 0.00 78 1013.3
20260901000936 63 0 0.0 0.0 0.00 0.00 0.00 78 1013.3
20260901000850 63 0 0.0 0.0 0.00 0.00 0.00 78 1013.3
20260901000526 63 0 0.0 0.0 0.00 0.00 0.00 78 1013.3
20260901000350 63 0 0.0 0.0 0.00 0.00 0.00 78 1013.3
20260831235310 63 0 0.0 0.0 0.00 0.00 0.00 78 1013.2
20260831235147 63 0 0.0 0.0 0.00 0.00 0.00 78 1013.2
20260831234646 63 0 0.0 0.0 0.00 0.00 0.00 78 1013.2
20260831234240 64 0 0.0 0.0 0.00 0.00 0.00 77 1013.2
20260831234146 64 0 0.0 0.0 0.00 0.00 0.00 77 1013.2
20260831233829 64 0 0.0 0.0 0.00 0.00 0.00 77 1013.1
20260831233646 64 0 0.0 0.0 0.00 0.00 0.00 77 1013.1
20260831233243 64 0 0.0 0.0 0.00 0.00 0.00 77 1013.1
20260831233146 64 0 0.0 0.0 0.00 0.00 0.00 77 1013.1
20260831232646 64 0 0.0 0.0 0.00 0.00 0.00 76 1013.1
20260831232146 64 0 0.0 0.0 0.00 0.00 0.00 76 1012.9
20260831231827 65 0 0.0 0.0 0.00 0.00 0.00 76 1013.0
20260831231646 65 0 0.0 0.0 0.00 0.00 0.00 76 1013.0
20260831231303 65 0 0.0 0.0 0.00 0.00 0.00 76 1012.9
20260831231146 65 0 0.0 0.0 0.00 0.00 0.00 76 1012.9
20260831230827 65 0 0.0 0.0 0.00 0.00 0.00 76 1012.9
20260831230646 65 0 0.0 0.0 0.00 0.00 0.00 76 1012.9
20260831230243 65 0 0.0 0.0 0.00 0.00 0.00 76 1012.8
20260831230147 65 0 0.0 0.0 0.00 0.00 0.00 76 1012.8
20260831225735 65 0 0.0 0.0 0.00 0.00 0.00 76 1012.8
20260831225646 65 0 0.0 0.0 0.00 0.00 0.00 76 1012.8
20260831225301 65 0 0.0 0.0 0.00 0.00 0.00 76 1012.7
20260831225146 65 0 0.0 0.0 0.00 0.00 0.00 76 1012.7
20260831224804 65 0 0.0 0.0 0.00 0.00 0.00 76 1012.6
20260831224646 65 0 0.0 0.0 0.00 0.00 0.00 76 1012.6
20260831224223 65 0 0.0 0.0 0.00 0.00 0.00 76 1012.6
20260831224146 65 0 0.0 0.0 0.00 0.00 0.00 76 1012.6
20260831223809 65 0 0.0 0.0 0.00 0.00 0.00 76 1012.7
20260831223646 65 0 0.0 0.0 0.00 0.00 0.00 76 1012.7
20260831223238 65 0 0.0 0.0 0.00 0.00 0.00 76 1012.7
20260831223146 65 0 0.0 0.0 0.00 0.00 0.00 76 1012.7
20260831222647 65 0 0.0 0.0 0.00 0.00 0.00 76 1012.7
20260831222249 66 0 0.0 0.0 0.00 0.00 0.00 77 1012.8
20260831222146 66 0 0.0 0.0 0.00 0.00 0.00 77 1012.8
20260831221819 66 0 0.0 0.0 0.00 0.00 0.00 77 1012.7
20260831221646 66 0 0.0 0.0 0.00 0.00 0.00 77 1012.7
20260831221256 66 0 0.0 0.0 0.00 0.00 0.00 77 1012.6
20260831221146 66 0 0.0 0.0 0.00 0.00 0.00 77 1012.6
20260831220256 66 0 0.0 0.0 0.00 0.00 0.00 78 1012.7
20260831215755 66 0 0.0 0.0 0.00 0.00 0.00 79 1012.7
20260831215412 66 0 0.0 0.0 0.00 0.00 0.00 81 1012.7
20260831215255 66 0 0.0 0.0 0.00 0.00 0.00 81 1012.7
20260831214902 65 0 0.0 0.0 0.00 0.00 0.00 82 1012.8
20260831214755 65 0 0.0 0.0 0.00 0.00 0.00 82 1012.8
20260831214349 65 0 0.0 0.0 0.00 0.00 0.00 83 1012.7
20260831214255 65 0 0.0 0.0 0.00 0.00 0.00 83 1012.7
20260831213904 65 0 0.0 0.0 0.00 0.00 0.00 83 1012.7
20260831213755 65 0 0.0 0.0 0.00 0.00 0.00 83 1012.7
20260831213429 65 0 0.0 0.0 0.00 0.00 0.00 83 1012.6
20260831213255 65 0 0.0 0.0 0.00 0.00 0.00 83 1012.6
20260831212755 65 0 0.0 0.0 0.00 0.00 0.00 82 1012.4
20260831212405 66 0 0.0 0.0 0.00 0.00 0.00 82 1012.5
20260831212255 66 0 0.0 0.0 0.00 0.00 0.00 82 1012.5
20260831211800 66 0 0.0 0.0 0.00 0.00 0.00 82 1012.6
20260831211610 66 0 0.0 0.0 0.00 0.00 0.00 82 1012.6
20260831211218 66 0 0.0 0.0 0.00 0.00 0.00 82 1012.6
20260831211111 66 0 0.0 0.0 0.00 0.00 0.00 82 1012.6
20260831210655 66 0 0.0 0.0 0.00 0.00 0.00 83 1012.6
20260831210611 66 0 0.0 0.0 0.00 0.00 0.00 83 1012.6
20260831210211 66 0 0.0 0.0 0.00 0.00 0.00 83 1012.6
20260831210110 66 0 0.0 0.0 0.00 0.00 0.00 83 1012.6
20260831205611 66 0 0.0 0.0 0.00 0.00 0.00 83 1012.5
20260831205110 66 0 0.0 0.0 0.00 0.00 0.00 82 1012.5
20260831204726 66 0 0.0 0.0 0.00 0.00 0.00 82 1012.5
20260831204610 66 0 0.0 0.0 0.00 0.00 0.00 82 1012.5
20260831204159 66 0 0.0 0.0 0.00 0.00 0.00 82 1012.4
20260831204110 66 0 0.0 0.0 0.00 0.00 0.00 82 1012.4
20260831203610 66 0 0.0 0.0 0.00 0.00 0.00 82 1012.4
20260831203151 66 0 0.0 0.0 0.00 0.00 0.00 82 1012.4
20260831203110 66 0 0.0 0.0 0.00 0.00 0.00 82 1012.4
20260831202712 66 0 0.0 0.0 0.00 0.00 0.00 82 1012.3
20260831202610 66 0 0.0 0.0 0.00 0.00 0.00 82 1012.3
20260831202158 67 0 0.0 0.0 0.00 0.00 0.00 82 1012.3
20260831202110 67 0 0.0 0.0 0.00 0.00 0.00 82 1012.3
20260831201728 67 0 0.0 0.0 0.00 0.00 0.00 82 1012.2
20260831201610 67 0 0.0 0.0 0.00 0.00 0.00 82 1012.2
20260831201146 67 0 0.0 0.0 0.00 0.00 0.00 82 1012.1
20260831201110 67 0 0.0 0.0 0.00 0.00 0.00 82 1012.1
20260831200729 67 0 0.0 0.0 0.00 0.00 0.00 82 1012.1
20260831200610 67 0 0.0 0.0 0.00 0.00 0.00 82 1012.1
20260831200251 67 0 0.0 0.0 0.00 0.00 0.00 82 1012.1
20260831200110 67 0 0.0 0.0 0.00 0.00 0.00 82 1012.1
20260831195819 67 0 0.0 0.0 0.00 0.00 0.00 82 1012.1
20260831195610 67 0 0.0 0.0 0.00 0.00 0.00 82 1012.1
20260831195209 67 0 0.0 0.0 0.00 0.00 0.00 82 1012.1
20260831195110 67 0 0.0 0.0 0.00 0.00 0.00 82 1012.1
20260831194803 67 0 0.0 0.0 0.00 0.00 0.00 82 1012.1
20260831194610 67 0 0.0 0.0 0.00 0.00 0.00 82 1012.1
20260831194111 67 0 0.0 0.0 0.00 0.00 0.00 82 1012.1
20260831193437 67 0 0.0 0.0 0.00 0.00 0.00 82 1012.2
20260831193346 67 0 0.0 0.0 0.00 0.00 0.00 82 1012.2
20260831193033 67 0 0.0 0.0 0.00 0.00 0.00 82 1012.2
20260831192846 67 0 0.0 0.0 0.00 0.00 0.00 82 1012.2
20260831192346 67 0 0.0 0.0 0.00 0.00 0.00 81 1012.2
20260831192045 68 0 0.0 0.0 0.00 0.00 0.00 81 1012.2
20260831191846 68 0 0.0 0.0 0.00 0.00 0.00 81 1012.2
20260831191504 68 0 0.0 0.0 0.00 0.00 0.00 81 1012.3
20260831191346 68 0 0.0 0.0 0.00 0.00 0.00 81 1012.3
20260831190846 68 0 0.0 0.0 0.00 0.00 0.00 80 1012.2
20260831190527 68 0 0.0 0.0 0.00 0.00 0.00 80 1012.2
20260831190346 68 0 0.0 0.0 0.00 0.00 0.00 80 1012.2
20260831190024 68 0 0.0 0.0 0.00 0.00 0.00 79 1012.2
20260831185846 68 0 0.0 0.0 0.00 0.00 0.00 79 1012.2
20260831185348 68 0 0.0 0.0 0.00 0.00 0.00 79 1012.2
20260831184720 69 0 0.0 0.0 0.00 0.00 0.00 79 1012.2
20260831184637 69 0 0.0 0.0 0.00 0.00 0.00 79 1012.2
20260831184227 69 0 0.0 0.0 0.00 0.00 0.00 79 1012.2
20260831184137 69 0 0.0 0.0 0.00 0.00 0.00 79 1012.2
20260831183637 69 0 0.0 0.0 0.00 0.00 0.00 78 1012.1
20260831183234 69 0 0.0 0.0 0.00 0.00 0.00 78 1012.2
20260831183137 69 0 0.0 0.0 0.00 0.00 0.00 78 1012.2
20260831182728 69 0 0.0 0.0 0.00 0.00 0.00 78 1012.1
20260831182638 69 0 0.0 0.0 0.00 0.00 0.00 78 1012.1
20260831182238 69 0 0.0 0.0 0.00 0.00 0.00 78 1012.2
20260831182137 69 0 0.0 0.0 0.00 0.00 0.00 78 1012.2
20260831181637 69 0 0.0 0.0 0.00 0.00 0.00 77 1012.1
20260831181230 69 0 0.0 0.0 0.00 0.00 0.00 77 1012.0
20260831181137 69 0 0.0 0.0 0.00 0.00 0.00 77 1012.0
20260831180637 70 0 0.0 0.0 0.00 0.00 0.00 76 1012.0
20260831180223 70 0 0.0 0.0 0.00 0.00 0.00 76 1011.9
20260831180137 70 0 0.0 0.0 0.00 0.00 0.00 76 1011.9
20260831175807 70 0 0.0 0.0 0.00 0.00 0.00 76 1011.9
20260831175637 70 0 0.0 0.0 0.00 0.00 0.00 76 1011.9
20260831175057 70 0 0.0 0.0 0.00 0.00 0.00 75 1011.8
20260831174557 70 0 0.0 0.0 0.00 0.00 0.00 74 1011.8
20260831174153 71 0 0.0 0.0 0.00 0.00 0.00 74 1011.7
20260831174057 71 0 0.0 0.0 0.00 0.00 0.00 74 1011.7
20260831173738 71 0 0.0 0.0 0.00 0.00 0.00 73 1011.7
20260831173557 71 0 0.0 0.0 0.00 0.00 0.00 73 1011.7
20260831173150 71 0 0.0 0.0 0.00 0.00 0.00 73 1011.7
20260831173057 71 0 0.0 0.0 0.00 0.00 0.00 73 1011.7
20260831172803 71 0 0.0 0.0 0.00 0.00 0.00 73 1011.7
20260831172557 71 0 0.0 0.0 0.00 0.00 0.00 73 1011.7
20260831172156 71 0 0.0 0.0 0.00 0.00 0.00 73 1011.7
20260831172057 71 0 0.0 0.0 0.00 0.00 0.00 73 1011.7
20260831171739 71 0 0.0 0.0 0.00 0.00 0.00 72 1011.7
20260831171557 71 0 0.0 0.0 0.00 0.00 0.00 72 1011.7
20260831171157 72 0 0.0 0.0 0.00 0.00 0.00 72 1011.7
20260831171057 72 0 0.0 0.0 0.00 0.00 0.00 72 1011.7
20260831170707 72 0 0.0 0.0 0.00 0.00 0.00 72 1011.7
20260831170557 72 0 0.0 0.0 0.00 0.00 0.00 72 1011.7
20260831165731 72 0 0.0 0.0 0.00 0.00 0.00 71 1011.7
20260831165630 72 0 0.0 0.0 0.00 0.00 0.00 71 1011.7
20260831165230 72 0 0.0 0.0 0.00 0.00 0.00 70 1011.8
20260831165130 72 0 0.0 0.0 0.00 0.00 0.00 70 1011.8
20260831164908 72 0 0.0 0.0 0.00 0.00 0.00 70 1011.7
20260831164630 72 0 0.0 0.0 0.00 0.00 0.00 70 1011.7
20260831164130 73 0 0.0 0.0 0.00 0.00 0.00 69 1011.7
20260831163738 72 0 0.0 0.0 0.00 0.00 0.00 70 1011.7
20260831163630 72 0 0.0 0.0 0.00 0.00 0.00 70 1011.7
20260831163259 73 0 0.0 0.0 0.00 0.00 0.00 69 1011.7
20260831163130 73 0 0.0 0.0 0.00 0.00 0.00 69 1011.7
20260831162746 73 0 0.0 0.0 0.00 0.00 0.00 69 1011.8
20260831162630 73 0 0.0 0.0 0.00 0.00 0.00 69 1011.8
20260831161847 72 0 0.0 0.0 0.00 0.00 0.00 69 1011.7
20260831161443 73 0 0.0 0.0 0.00 0.00 0.00 70 1011.7
20260831161347 73 0 0.0 0.0 0.00 0.00 0.00 70 1011.7
20260831160938 73 0 0.0 0.0 0.00 0.00 0.00 69 1011.6
20260831160847 73 0 0.0 0.0 0.00 0.00 0.00 69 1011.6
20260831160526 72 0 0.0 0.0 0.00 0.00 0.00 70 1011.7
20260831160347 72 0 0.0 0.0 0.00 0.00 0.00 70 1011.7
20260831155934 72 0 0.0 0.0 0.00 0.00 0.00 71 1011.7
20260831155847 72 0 0.0 0.0 0.00 0.00 0.00 71 1011.7
20260831155448 71 0 0.0 0.0 0.00 0.00 0.00 71 1011.7
20260831155347 71 0 0.0 0.0 0.00 0.00 0.00 71 1011.7
20260831154847 71 0 0.0 0.0 0.00 0.00 0.00 72 1011.8
20260831154438 71 0 0.0 0.0 0.00 0.00 0.00 71 1011.8
20260831154347 71 0 0.0 0.0 0.00 0.00 0.00 71 1011.8
20260831153927 72 0 0.0 0.0 0.00 0.00 0.00 70 1011.9
20260831153846 72 0 0.0 0.0 0.00 0.00 0.00 70 1011.9
20260831152450 72 0 0.0 0.0 0.00 0.00 0.00 69 1011.9
20260831152406 72 0 0.0 0.0 0.00 0.00 0.00 69 1011.9
20260831151943 72 0 0.0 0.0 0.00 0.00 0.00 69 1012.0
20260831151906 72 0 0.0 0.0 0.00 0.00 0.00 69 1012.0
20260831151515 72 0 0.0 0.0 0.00 0.00 0.00 69 1012.0
20260831151406 72 0 0.0 0.0 0.00 0.00 0.00 69 1012.0
20260831150951 72 0 0.0 0.0 0.00 0.00 0.00 69 1012.1
20260831150906 72 0 0.0 0.0 0.00 0.00 0.00 69 1012.1
20260831150406 72 0 0.0 0.0 0.00 0.00 0.00 69 1012.2
20260831150007 72 0 0.0 0.0 0.00 0.00 0.00 69 1012.1
20260831145906 72 0 0.0 0.0 0.00 0.00 0.00 69 1012.1
20260831145455 72 0 0.0 0.0 0.00 0.00 0.00 69 1012.2
20260831145406 72 0 0.0 0.0 0.00 0.00 0.00 69 1012.2
20260831145004 71 0 0.0 0.0 0.00 0.00 0.00 71 1012.3
20260831144757 71 0 0.0 0.0 0.00 0.00 0.00 71 1012.3
20260831144342 71 0 0.0 0.0 0.00 0.00 0.00 70 1012.4
20260831144259 71 0 0.0 0.0 0.00 0.00 0.00 70 1012.4